Weather in Verkhniy Studenets

Russia / Lipetsk Oblast     52°36′08″N   39°03′18″E
temp.,
°C
wind,
m/s
gust,
m/s
humid.,
%
clouds,
%
prec.,
mm/h
press.,
hPa
HPBL,
m
12 may, wed
wed1200:00+6e35911 0.0 102581
03:00+5ene3592100 0.0 102598
06:00+6ene388699 0.0 1025208
09:00+12ene5766100 0.0 1024689
12:00+12ene347399 1.4 1021943
15:00+11ne4375100 1.7 1020752
18:00+13e45715 0.0 1018876
21:00+8e4108912 0.0 1019190
13 may, thu
thu1300:00+9e51386100 0.0 1018335
03:00+9ese51290100 0.1 1018360
06:00+10ese61289100 0.0 1017360
09:00+14se61072100 0.0 1017712
12:00+18sse586046 0.1 10161422
15:00+12wnw239118 1.4 1016200
18:00+16ese138173 1.9 1015527
21:00+12ese349614 3.7 101669
14 may, fri
fri1400:00+12ese2294100 0.0 101623
03:00+12e3593100 0.0 101771
06:00+13ese499415 0.4 1016200
09:00+18se51075100 0.7 1015468
12:00+22sse696089 0.0 10141153
15:00+24sse61159100 0.0 10131785
18:00+21s61270100 0.8 1013365
21:00+18se5118099 0.9 1012170
15 may, sat
sat1500:00+17ese339070 0.1 101141
03:00+15wsw119323 0.1 101216
06:00+15e469499 0.2 1011164
09:00+18sse468995 2.9 1012321
12:00+20sse688014 0.3 1011494
15:00+23s79668 1.6 10111389
18:00+22ssw47725 0.8 1011355
21:00+16w22860 0.8 101226
16 may, sun
sun1600:00+15wsw11871 0.0 101311
03:00+14w118840 0.0 101311
06:00+15w1186100 0.0 101420
09:00+19w22704 0.0 1014436
12:00+22wsw2255100 0.0 10141287
15:00+23nw12495 0.0 10131604
18:00+22n2263100 0.0 101373
21:00+17nne357578 0.0 101362